User: anonymous   Login
Location: Red Shale Campground
(45.5700°N, 106.1600°W)
Time: 14:24:34
(UTC-06:00)
Language:

FENGYUN 3A - Orbit

View from above orbital plane
View from above orbital plane
View from above satellite
View from above satellite

Ground track
Ground track

The orbit data is extracted from the following two-line orbital elements,

1 32958U 08026A   16273.43846367 -.00000008  00000-0  15686-4 0  9992
2 32958  98.4432 308.7294 0009230 324.1108  35.9452 14.19631922432347
Epoch (UTC): 29 September 2016 10:31:23
Eccentricity: 0.0009230
inclination: 98.4432°
perigee height: 820 km
apogee height: 833 km
right ascension of ascending node: 308.7294°
argument of perigee: 324.1108°
revolutions per day: 14.19631922
mean anomaly at epoch: 35.9452°
orbit number at epoch: 43234

The dashed part of the orbit path shows where the satellite is in the earth's shadow,  

DLR